GFSMA_250_rhum_282.txt.gz
RH
99 92 92 85 99 92 83 72 86 90 86 91 70 60 37 32 23 20 23 29 29 31 30 28 27 30 57 79 100 100 100 94 71 61 82 95 75 81 82 91 85 66 71
100 90 80 78 83 79 84 94 92 93 98 79 75 47 37 26 21 25 27 30 34 30 30 30 30 31 67 85 100 100 100 86 84 59 78 92 70 78 93 94 90 55 70
90 85 75 74 88 94 100 100 100 100 98 83 56 42 35 23 24 28 28 33 35 31 35 35 36 37 70 89 100 100 94 97 86 57 80 81 70 82 100 99 92 70 74
91 100 100 100 100 100 100 100 100 98 87 70 51 38 31 27 30 32 33 34 35 32 39 39 37 34 53 78 100 100 100 88 90 85 94 74 75 83 100 100 88 94 86
100 100 100 100 100 100 100 100 97 79 63 54 44 34 28 29 35 33 32 38 37 39 44 44 35 37 49 68 94 100 100 81 80 100 96 68 65 71 83 100 100 95 100
100 100 100 100 100 100 100 85 76 52 45 44 36 35 33 32 35 31 31 35 32 39 42 43 38 37 46 65 89 100 100 100 90 100 94 71 62 62 71 100 100 88 100
94 99 88 92 83 71 77 58 47 32 36 42 39 37 36 40 37 30 29 28 30 30 36 42 39 37 48 55 77 94 100 100 100 100 85 72 73 60 65 100 96 75 84
88 81 66 61 52 46 43 39 32 38 47 41 40 36 38 44 35 32 31 28 27 28 33 44 44 34 41 49 64 78 100 100 100 100 98 79 79 62 61 99 84 75 69
72 58 44 37 36 37 41 45 52 44 39 43 38 39 47 38 37 34 32 29 26 28 34 42 42 37 37 44 62 73 88 100 100 100 100 88 78 81 65 88 93 75 68
50 44 42 51 51 45 44 42 39 39 46 45 49 44 42 39 37 33 30 27 26 26 34 41 40 35 33 39 62 75 76 92 100 100 98 94 78 89 71 83 96 98 82
76 70 66 53 44 38 37 39 42 42 46 47 47 49 44 40 36 32 28 23 24 26 36 38 37 33 31 35 54 84 79 74 96 100 100 97 87 95 84 81 90 100 99
89 65 51 45 42 40 42 41 41 54 49 45 44 41 38 33 31 29 26 21 22 30 34 36 35 33 30 32 47 87 90 85 83 87 81 79 97 83 85 90 97 100 100
60 64 53 49 45 45 47 50 51 49 46 43 39 34 30 29 25 23 20 18 21 30 36 40 36 33 32 30 33 63 99 95 90 90 94 72 79 74 99 79 91 100 100
62 54 49 46 44 42 42 42 41 40 40 38 35 27 22 20 19 20 21 21 29 30 39 39 36 35 32 30 30 37 99 100 97 91 96 91 92 89 77 74 84 100 100
62 51 48 45 42 41 40 38 38 37 37 32 26 24 23 23 24 24 22 26 31 41 41 38 36 34 32 32 32 34 72 100 100 98 83 96 95 100 83 71 87 100 100
60 50 47 45 42 41 41 39 37 34 30 27 25 24 22 24 26 26 28 31 39 47 52 43 38 35 34 36 34 36 56 100 95 96 84 79 90 94 90 53 84 98 80
57 51 49 49 47 45 43 41 39 36 33 28 26 25 26 30 30 31 31 40 45 44 44 43 38 36 36 42 38 44 57 100 94 94 97 97 100 87 88 63 67 96 100
69 66 63 58 53 49 45 42 39 36 34 31 29 29 32 34 37 33 39 46 46 42 45 42 40 35 37 42 43 49 64 94 94 96 99 100 92 81 63 58 86 100 100
68 67 64 61 57 52 46 41 38 36 34 34 34 34 36 41 42 46 45 43 45 45 46 49 42 36 38 40 44 55 77 88 100 100 100 97 74 70 67 62 83 96 100
59 58 56 54 52 49 46 44 40 37 37 38 44 48 54 56 60 53 53 47 42 45 44 49 50 47 39 41 46 59 97 76 96 100 96 100 94 94 93 90 100 100 98
42 44 44 43 43 43 43 42 41 41 43 49 61 67 68 64 70 62 54 50 47 44 50 52 52 48 40 40 41 49 68 99 100 100 100 100 100 100 100 100 100 98 98
37 37 38 40 42 45 48 49 49 54 59 69 81 73 72 74 69 64 53 53 53 47 48 51 52 52 43 37 40 44 72 100 100 100 100 100 100 100 100 100 100 99 87
38 38 36 38 44 49 50 54 61 74 86 92 91 93 84 78 70 66 62 57 50 49 53 54 51 49 41 42 57 73 85 91 100 100 100 100 100 100 100 100 100 100 100
59 57 58 62 68 66 70 73 77 79 80 85 84 76 73 73 78 70 60 51 46 53 51 45 40 37 40 46 58 84 100 100 100 100 100 100 100 100 100 100 100 100 100
80 86 86 80 79 78 80 86 87 86 83 88 89 78 81 82 75 61 54 55 53 49 44 37 32 36 49 54 91 100 100 100 100 100 100 100 100 100 100 100 99 98 100
99 98 100 99 100 100 95 91 92 90 88 90 94 97 88 85 69 64 59 61 55 43 39 32 34 44 59 71 78 100 100 100 100 100 100 100 100 100 100 100 100 100 93

GFSMA_250_rhum_288.txt.gz
RH
100 100 100 97 99 100 98 100 100 100 100 100 100 100 92 85 72 80 91 96 89 66 43 28 25 25 22 24 24 27 32 32 36 34 31 33 59 58 80 96 93 84 88
100 100 100 100 100 100 100 100 100 100 100 100 95 98 93 80 83 100 100 93 76 60 37 30 27 27 25 25 24 25 30 28 35 37 32 32 43 56 76 96 85 83 100
100 100 100 100 100 100 100 100 100 100 100 100 95 98 90 93 100 100 99 91 85 57 34 31 29 28 28 26 25 25 26 28 31 38 35 32 37 51 58 78 89 81 94
100 100 100 100 100 100 100 100 100 100 100 100 100 100 94 99 100 100 100 99 72 54 33 35 32 34 32 29 27 26 24 27 28 36 34 34 37 42 66 74 87 83 97
94 95 100 100 100 100 100 100 100 100 100 100 100 100 100 100 99 100 100 85 65 46 36 38 42 40 34 31 29 27 23 24 29 36 36 34 37 44 51 64 64 84 79
92 87 98 100 100 100 100 100 100 100 100 100 98 100 100 100 100 98 91 72 56 45 43 40 46 45 36 31 31 28 26 21 26 32 36 35 34 38 46 52 66 68 66
89 83 92 98 99 100 100 100 100 100 100 100 100 100 100 100 100 93 83 59 44 48 44 45 48 45 37 33 32 30 27 19 25 31 33 33 32 33 40 51 61 70 72
89 90 91 96 90 92 99 95 97 100 99 100 100 100 100 100 99 82 70 53 41 49 46 47 52 42 38 36 32 29 19 19 25 31 33 32 33 33 36 47 57 83 71
67 81 81 75 75 83 84 89 92 97 97 100 100 100 99 90 85 74 54 41 43 49 52 66 53 43 40 33 28 21 19 22 23 28 34 33 31 33 34 40 50 80 91
72 58 73 74 71 81 84 86 91 100 100 100 100 100 92 80 78 67 45 37 51 46 56 62 51 45 37 29 23 23 23 22 24 24 28 32 30 30 33 36 41 61 85
83 76 65 71 65 96 100 100 100 100 100 96 88 87 76 68 62 48 38 43 50 46 66 64 55 39 32 24 22 23 22 23 24 28 29 30 31 30 32 33 38 46 60
88 97 90 96 96 95 100 100 100 100 97 90 83 75 82 78 54 46 46 50 44 50 65 58 42 32 26 25 23 23 22 24 24 27 28 31 31 32 34 34 36 38 43
95 93 92 90 95 86 87 98 98 98 92 90 89 93 91 65 63 63 51 46 45 60 65 50 39 36 27 26 25 24 25 26 27 28 31 34 38 39 36 36 37 36 39
51 92 96 91 100 100 94 87 82 80 87 83 82 79 68 72 88 68 54 49 61 69 62 42 35 31 29 28 26 25 29 31 32 30 34 34 38 45 43 36 39 41 35
56 56 70 87 92 94 97 97 92 74 67 76 84 88 92 99 80 65 54 56 58 52 43 36 35 34 31 31 30 31 34 35 35 38 36 38 42 47 44 42 40 40 43
88 78 67 67 65 72 72 69 80 100 100 100 100 100 100 95 78 61 54 54 49 44 38 38 38 39 36 35 34 35 36 37 40 40 41 45 50 49 44 44 44 44 44
78 88 93 94 99 85 73 78 92 95 100 100 100 100 100 89 70 57 54 48 45 42 42 44 44 41 41 38 36 37 38 40 42 46 52 61 55 52 48 45 48 45 44
38 49 60 74 71 54 72 89 97 100 100 100 100 100 93 77 72 56 48 46 50 48 50 50 48 45 44 40 39 40 40 40 46 52 62 65 62 58 56 52 51 49 45
23 28 30 35 43 47 78 82 87 82 82 83 89 87 75 81 74 54 49 51 53 56 53 54 50 50 46 41 41 42 42 40 50 64 68 67 66 63 60 59 62 52 45
24 24 27 30 35 44 61 63 64 60 61 62 65 68 74 83 75 56 56 52 56 65 62 57 55 52 46 43 43 44 39 45 58 71 68 67 64 64 63 60 60 55 46
29 28 29 32 36 44 54 56 54 52 52 54 61 66 74 81 76 67 64 64 65 65 61 60 54 47 45 44 43 42 45 58 55 69 75 68 66 68 61 58 55 44 35
33 34 38 38 39 44 50 50 48 45 45 46 47 53 62 70 74 76 72 69 66 66 64 54 49 45 45 41 43 47 49 57 72 75 77 67 72 69 59 56 38 26 31
39 40 44 47 48 45 46 46 47 46 46 46 48 51 56 61 65 68 67 69 67 66 56 55 46 43 43 44 44 57 74 82 84 80 70 74 70 63 54 45 24 23 35
47 47 47 50 52 54 52 49 47 46 44 45 48 49 51 52 53 55 59 62 60 56 54 47 45 45 44 60 62 81 88 88 79 80 79 74 65 57 51 41 21 22 35
53 49 49 50 51 52 52 50 49 47 45 46 47 47 46 46 46 46 47 47 47 47 46 45 43 47 64 60 86 85 96 86 85 84 78 66 67 58 51 42 22 24 41
52 50 53 54 52 51 51 51 50 49 48 47 46 46 45 44 43 43 42 41 40 42 43 48 59 69 84 88 81 92 87 85 83 78 73 73 68 60 56 36 25 30 44

GFSMA_250_rhum_294.txt.gz
RH
77 82 65 79 98 99 86 76 74 70 69 70 68 74 75 93 100 100 100 100 100 83 66 76 74 97 91 75 58 50 33 33 40 38 33 30 24 16 18 20 22 24 29
66 73 51 88 100 100 100 92 86 78 71 71 73 83 91 94 100 100 100 100 100 98 88 81 78 99 80 65 63 61 38 33 43 42 35 31 21 17 18 20 23 25 27
90 79 60 50 95 100 100 100 99 95 89 83 80 79 98 100 100 100 100 100 100 100 93 84 86 94 74 73 73 58 36 30 38 44 36 31 20 18 19 20 21 23 28
100 100 85 60 70 100 100 100 100 100 100 100 96 94 97 100 95 97 100 100 100 100 97 82 90 100 74 94 78 60 38 29 35 41 39 30 22 20 20 21 22 21 24
100 100 100 100 86 98 98 97 96 100 100 100 100 80 89 93 100 100 100 100 100 100 93 92 100 100 80 92 68 62 42 31 33 42 42 32 24 21 22 22 23 24 25
100 97 96 99 100 100 100 100 100 100 100 100 100 100 86 79 82 100 100 100 99 100 90 94 100 98 100 88 69 58 39 33 34 46 45 32 26 23 22 23 26 27 27
100 100 91 87 97 100 100 100 100 100 100 100 100 90 82 82 85 95 100 98 98 99 94 89 90 100 100 85 76 57 35 35 40 50 49 30 28 25 26 26 29 30 30
100 100 93 80 81 100 100 100 99 99 99 100 99 99 100 96 97 82 83 91 100 100 93 90 100 100 94 85 76 49 37 37 44 55 58 29 28 28 28 30 32 34 31
100 100 100 100 85 100 100 100 93 100 100 100 100 100 100 97 88 86 90 95 100 99 96 100 100 87 92 85 71 40 37 40 48 57 57 35 31 30 31 32 34 35 35
100 100 100 100 99 93 100 100 100 99 97 100 100 100 100 100 99 98 96 91 92 100 100 100 100 100 100 89 68 42 40 45 50 60 61 40 32 32 34 35 38 36 37
100 100 87 66 94 97 100 100 100 100 97 100 100 100 100 100 100 100 96 98 93 96 100 100 100 100 100 90 65 48 45 51 49 57 66 44 34 38 39 40 41 38 39
100 100 100 100 95 96 100 100 100 100 100 100 100 100 100 100 100 100 95 99 92 82 86 100 100 100 100 86 70 57 55 54 56 62 55 51 40 43 44 43 43 42 42
100 100 100 100 100 100 100 100 100 100 100 100 100 100 100 100 100 100 100 91 97 100 100 100 100 100 100 88 77 67 74 58 56 57 47 50 44 45 48 46 46 46 44
100 100 100 100 100 100 98 96 100 100 100 100 100 100 100 100 100 100 100 100 100 100 100 100 100 100 100 94 87 76 80 64 58 57 50 50 50 48 50 50 50 48 46
100 100 100 100 100 100 100 100 100 100 100 100 100 100 100 100 100 100 100 99 100 100 100 100 100 100 99 94 87 88 86 65 62 58 52 56 54 53 52 50 53 50 49
100 100 100 100 100 100 100 100 100 100 100 100 100 100 100 100 100 100 89 84 100 100 100 100 100 100 92 88 86 92 95 75 64 60 54 56 62 55 55 55 56 54 51
95 100 100 100 100 100 100 100 100 100 100 100 100 100 100 100 100 100 100 100 100 100 99 95 100 96 93 81 91 100 90 83 76 65 60 63 64 55 62 62 62 56 54
34 50 85 100 100 100 100 100 100 100 100 100 100 100 100 100 100 100 100 100 100 99 99 98 94 96 96 99 100 100 90 89 79 72 68 65 67 64 65 67 62 58 55
71 35 29 39 64 82 81 75 60 50 43 39 41 55 95 100 100 100 100 100 100 100 100 100 94 90 94 100 100 95 88 93 96 83 76 72 73 67 66 68 63 57 52
100 89 48 31 29 29 37 44 46 45 43 45 46 48 44 45 59 83 100 100 100 100 99 87 99 96 93 98 97 90 85 88 93 92 90 80 77 75 69 63 55 52 48
98 97 96 51 36 30 30 35 37 42 50 56 63 69 62 65 69 68 70 77 84 90 93 90 100 100 100 100 99 86 80 88 94 89 81 81 78 69 60 54 50 49 48
28 100 100 98 54 35 34 35 32 32 41 49 54 76 84 88 100 100 100 100 100 100 96 90 100 100 95 86 81 79 79 78 74 71 70 66 61 56 53 47 46 47 55
21 32 100 100 95 53 42 35 34 31 31 33 37 49 66 89 93 100 100 100 100 100 98 93 97 90 79 76 72 68 66 59 57 58 57 56 54 49 46 46 46 57 64
19 21 43 100 100 84 55 41 38 37 32 30 31 35 42 50 83 98 100 98 98 99 85 72 88 76 72 65 63 61 57 55 56 55 54 52 49 48 47 49 58 77 88
19 20 21 54 100 100 78 52 41 40 39 35 33 33 34 35 39 57 62 50 48 49 59 56 72 71 65 62 60 59 58 58 55 54 51 49 48 48 52 59 84 94 92
20 22 22 23 70 100 100 70 55 51 50 44 36 35 35 36 37 36 34 34 35 39 43 47 58 70 68 65 60 59 58 56 54 53 49 47 47 51 58 86 92 94 89

GFSMA_250_rhum_297.txt.gz
RH
100 100 100 100 96 100 100 94 89 77 71 62 62 62 64 64 58 71 75 92 100 100 100 100 100 100 92 82 86 74 73 88 60 53 33 32 39 38 29 22 20 20 22
100 100 100 100 100 92 95 71 82 98 93 86 70 68 70 70 66 72 93 100 100 100 100 100 100 95 95 86 84 86 75 92 63 51 36 35 40 40 32 23 22 21 24
100 100 100 93 100 85 100 62 69 97 100 98 98 88 79 84 78 85 100 100 100 100 98 99 100 96 95 92 100 77 86 93 67 57 35 35 41 46 30 27 24 24 27
100 100 100 100 100 96 93 76 68 53 100 100 100 100 100 96 96 91 90 98 97 96 97 98 100 92 98 96 96 85 86 87 66 60 33 34 40 50 28 29 26 27 31
100 100 100 96 92 100 100 90 75 67 97 100 100 100 100 100 100 96 94 98 85 72 90 97 98 94 94 100 96 90 90 88 69 62 31 31 39 49 40 28 28 28 32
100 100 100 100 99 100 100 100 100 93 71 86 100 100 100 100 100 100 100 100 89 79 71 82 99 97 94 89 98 100 95 97 78 72 40 30 37 46 52 28 30 31 33
100 100 100 100 100 100 100 100 100 100 97 100 100 100 100 100 100 100 100 100 97 91 96 85 95 94 94 89 92 100 91 91 94 85 53 32 41 50 55 38 32 33 36
88 100 100 100 91 98 100 100 100 97 81 100 100 100 100 100 100 100 100 98 94 100 100 98 95 94 100 95 91 100 99 100 98 91 68 38 44 50 55 48 33 38 39
74 68 96 100 100 100 99 100 90 91 78 79 80 100 100 100 100 100 100 100 99 100 100 100 100 99 100 98 97 99 100 100 100 97 81 44 48 50 53 56 41 42 44
100 92 94 100 99 100 100 100 95 84 83 87 82 79 99 92 89 100 100 96 96 100 100 100 100 100 100 97 98 100 99 100 100 100 69 60 53 49 54 53 49 44 48
100 100 100 96 99 100 100 100 94 84 90 92 94 91 78 100 100 99 98 94 100 100 100 100 100 100 97 94 91 96 100 100 100 97 81 72 60 55 56 47 50 51 55
100 100 100 100 100 100 100 100 100 95 100 92 78 85 85 94 100 100 100 100 100 100 100 100 100 100 100 100 76 98 100 100 100 93 93 79 69 62 58 55 52 55 54
100 100 100 100 100 100 100 100 100 97 94 100 100 96 97 96 100 99 100 100 100 100 100 100 100 99 96 76 100 100 100 100 100 100 90 80 78 68 61 60 60 61 60
98 100 100 100 100 100 100 100 93 86 83 100 100 100 96 91 100 100 94 100 100 100 100 100 100 100 100 100 100 100 100 100 100 97 90 77 84 77 67 63 61 60 67
100 94 100 100 100 100 100 100 100 100 92 86 66 89 99 98 99 100 100 93 88 97 98 100 100 100 100 100 100 100 97 100 100 95 91 74 80 92 79 73 64 63 64
36 100 100 100 100 100 100 100 100 100 100 100 85 100 82 70 79 97 100 100 100 100 100 100 98 98 92 86 95 88 90 95 97 92 90 81 100 94 87 82 74 77 70
30 27 96 100 100 100 100 100 100 100 100 99 100 98 100 97 92 97 100 100 100 100 100 100 100 100 99 100 100 100 96 90 92 94 81 78 99 97 99 90 81 81 82
24 23 25 95 98 100 100 100 100 100 100 100 100 100 100 100 100 100 100 100 100 100 100 100 100 100 100 100 100 93 100 92 94 90 86 94 96 94 96 98 90 89 89
21 25 28 26 84 100 100 100 100 100 100 100 100 100 100 100 100 100 100 100 100 100 100 100 100 100 100 100 100 97 84 90 100 86 92 98 96 96 88 92 88 94 81
16 19 41 38 43 80 100 100 100 100 100 100 100 100 100 100 100 100 100 100 100 100 100 100 100 100 100 100 100 100 100 98 88 100 100 100 99 96 87 89 86 75 66
18 19 20 45 71 80 97 97 100 100 100 100 100 100 100 100 100 100 100 100 99 87 65 51 52 64 78 84 85 90 89 96 100 100 97 98 94 85 82 77 68 59 58
21 20 20 20 32 89 87 100 100 100 100 100 100 100 100 100 100 100 100 93 75 48 47 52 58 62 81 86 88 91 98 100 100 87 94 90 82 77 73 66 58 56 56
27 23 23 22 19 25 82 100 100 100 100 100 100 100 100 100 100 98 84 64 49 54 63 70 86 97 95 91 93 100 100 100 98 97 90 83 78 72 65 61 58 58 54
32 29 24 25 23 20 20 51 92 91 85 74 65 67 68 65 54 44 42 44 56 65 76 86 94 100 100 100 100 100 97 100 100 90 86 79 74 68 63 61 60 56 54
38 32 34 30 24 23 21 22 25 69 100 93 74 54 34 34 35 35 34 36 41 52 55 65 77 88 92 100 100 98 93 89 82 69 70 77 72 66 65 64 60 58 56
38 33 36 35 27 25 23 22 25 23 42 78 96 97 77 51 46 42 38 38 36 39 40 38 39 47 52 72 89 76 51 44 44 52 51 61 71 69 69 66 60 57 58